When you browse on this site, cookies collect data to enhance your experience and personalize the content and advertising you see.
Visit our Privacy Policy to learn more. By continuing to use the site, you agree to this use of cookies and data.
  • In Österreich
  • Länderverzeichnis
  • Für 7 Tage
  • Wassertemperatur
  • Wetterkarte
  • News
  • Widgets
  • user-avatar
    Anmelden

    Stündliche Wetter Brisbane

    Heute, 27 Januar, Montag

    Zeit Temperatur Niederschläge Wind Luftdruck Luftfeuchtigkeit
    00:00 +26°C° 0.1 mm 2 m/S 759 mmHg 83%
    01:00 +25°C° 0.1 mm 1 m/S 758 mmHg 84%
    02:00 +25°C° 0.2 mm 1 m/S 758 mmHg 85%
    03:00 +25°C° 0.2 mm 1 m/S 758 mmHg 85%
    04:00 +25°C° 0 mm 1 m/S 758 mmHg 84%
    05:00 +26°C° 0.1 mm 1 m/S 758 mmHg 82%
    06:00 +26°C° 0.1 mm 2 m/S 758 mmHg 80%
    07:00 +27°C° 0.1 mm 2 m/S 759 mmHg 78%
    08:00 +28°C° 0.1 mm 2 m/S 759 mmHg 70%
    09:00 +29°C° 0.1 mm 2 m/S 759 mmHg 63%
    10:00 +31°C° 0.1 mm 3 m/S 759 mmHg 55%
    11:00 +31°C° 0 mm 3 m/S 758 mmHg 50%
    12:00 +33°C° 0 mm 3 m/S 758 mmHg 46%
    13:00 +34°C° 0 mm 3 m/S 758 mmHg 42%
    14:00 +33°C° 0 mm 4 m/S 758 mmHg 44%
    15:00 +33°C° 0 mm 4 m/S 757 mmHg 47%
    16:00 +32°C° 0 mm 4 m/S 756 mmHg 50%
    17:00 +30°C° 0 mm 4 m/S 757 mmHg 58%
    18:00 +28°C° 0 mm 3 m/S 757 mmHg 65%
    19:00 +27°C° 0 mm 3 m/S 758 mmHg 73%
    20:00 +26°C° 0 mm 3 m/S 758 mmHg 77%
    21:00 +26°C° 0 mm 3 m/S 759 mmHg 80%
    22:00 +26°C° 0 mm 3 m/S 759 mmHg 84%
    23:00 +25°C° 0 mm 2 m/S 759 mmHg 84%

    Morgen, 28 Januar, Dienstag

    Zeit Temperatur Niederschläge Wind Luftdruck Luftfeuchtigkeit
    00:00 +25°C° 0 mm 2 m/S 759 mmHg 84%
    01:00 +25°C° 0 mm 1 m/S 758 mmHg 84%
    02:00 +25°C° 0 mm 1 m/S 758 mmHg 84%
    03:00 +25°C° 0 mm 1 m/S 758 mmHg 85%
    04:00 +24°C° 0 mm 1 m/S 758 mmHg 85%
    05:00 +25°C° 0 mm 1 m/S 758 mmHg 82%
    06:00 +26°C° 0 mm 1 m/S 759 mmHg 78%
    07:00 +27°C° 0 mm 1 m/S 759 mmHg 75%
    08:00 +28°C° 0 mm 1 m/S 759 mmHg 68%
    09:00 +30°C° 0 mm 2 m/S 759 mmHg 60%
    10:00 +31°C° 0 mm 2 m/S 759 mmHg 53%
    11:00 +32°C° 0 mm 2 m/S 759 mmHg 50%
    12:00 +34°C° 0 mm 3 m/S 758 mmHg 48%
    13:00 +34°C° 0 mm 3 m/S 758 mmHg 46%
    14:00 +34°C° 0 mm 3 m/S 757 mmHg 47%
    15:00 +33°C° 0 mm 4 m/S 757 mmHg 48%
    16:00 +33°C° 0 mm 4 m/S 756 mmHg 50%
    17:00 +30°C° 0 mm 4 m/S 757 mmHg 57%
    18:00 +29°C° 0 mm 3 m/S 757 mmHg 64%
    19:00 +27°C° 0 mm 3 m/S 758 mmHg 71%
    20:00 +27°C° 0 mm 3 m/S 758 mmHg 75%
    21:00 +26°C° 0 mm 2 m/S 759 mmHg 79%
    22:00 +26°C° 0 mm 2 m/S 760 mmHg 83%
    23:00 +25°C° 0 mm 2 m/S 759 mmHg 84%

    übermorgen, 29 Januar, Mittwoch

    Zeit Temperatur Niederschläge Wind Luftdruck Luftfeuchtigkeit
    00:00 +25°C° 0 mm 1 m/S 759 mmHg 86%
    01:00 +25°C° 0 mm 1 m/S 759 mmHg 87%
    02:00 +24°C° 0 mm 1 m/S 758 mmHg 87%
    03:00 +24°C° 0 mm 1 m/S 758 mmHg 88%
    04:00 +24°C° 0 mm 1 m/S 758 mmHg 88%
    05:00 +25°C° 0 mm 1 m/S 759 mmHg 84%
    06:00 +26°C° 0 mm 1 m/S 759 mmHg 80%
    07:00 +27°C° 0 mm 1 m/S 759 mmHg 76%
    08:00 +29°C° 0 mm 1 m/S 759 mmHg 67%
    09:00 +32°C° 0 mm 1 m/S 760 mmHg 57%
    10:00 +34°C° 0 mm 1 m/S 760 mmHg 48%
    11:00 +35°C° 0 mm 2 m/S 759 mmHg 47%
    12:00 +36°C° 0 mm 3 m/S 759 mmHg 46%
    13:00 +36°C° 0 mm 3 m/S 758 mmHg 44%
    14:00 +35°C° 0 mm 4 m/S 758 mmHg 47%
    15:00 +34°C° 0 mm 4 m/S 758 mmHg 49%
    16:00 +33°C° 0 mm 4 m/S 757 mmHg 52%
    17:00 +32°C° 0 mm 4 m/S 758 mmHg 58%
    18:00 +29°C° 0 mm 3 m/S 758 mmHg 64%
    19:00 +27°C° 0 mm 3 m/S 759 mmHg 70%
    20:00 +27°C° 0 mm 2 m/S 759 mmHg 73%
    21:00 +26°C° 0 mm 2 m/S 760 mmHg 77%
    22:00 +26°C° 0 mm 1 m/S 760 mmHg 80%
    23:00 +26°C° 0 mm 1 m/S 760 mmHg 81%

    30 Januar, Donnerstag

    Zeit Temperatur Niederschläge Wind Luftdruck Luftfeuchtigkeit
    00:00 +26°C° 0 mm 1 m/S 760 mmHg 81%
    01:00 +26°C° 0 mm 1 m/S 760 mmHg 82%
    02:00 +25°C° 0 mm 1 m/S 759 mmHg 82%
    03:00 +25°C° 0 mm 1 m/S 759 mmHg 82%
    04:00 +25°C° 0 mm 1 m/S 759 mmHg 83%
    05:00 +26°C° 0 mm 1 m/S 760 mmHg 79%
    06:00 +26°C° 0 mm 2 m/S 760 mmHg 75%
    07:00 +27°C° 0 mm 2 m/S 760 mmHg 71%
    08:00 +29°C° 0 mm 2 m/S 761 mmHg 63%
    09:00 +30°C° 0 mm 3 m/S 761 mmHg 55%
    10:00 +33°C° 0 mm 3 m/S 761 mmHg 47%
    11:00 +33°C° 0 mm 3 m/S 761 mmHg 45%
    12:00 +34°C° 0 mm 4 m/S 760 mmHg 44%
    13:00 +34°C° 0 mm 4 m/S 760 mmHg 42%
    14:00 +34°C° 0 mm 4 m/S 759 mmHg 44%
    15:00 +33°C° 0 mm 4 m/S 759 mmHg 46%
    16:00 +32°C° 0 mm 4 m/S 759 mmHg 48%
    17:00 +30°C° 0 mm 4 m/S 759 mmHg 56%
    18:00 +28°C° 0 mm 3 m/S 760 mmHg 63%
    19:00 +27°C° 0 mm 3 m/S 760 mmHg 71%
    20:00 +26°C° 0 mm 3 m/S 760 mmHg 74%
    21:00 +26°C° 0 mm 3 m/S 761 mmHg 77%
    22:00 +25°C° 0 mm 2 m/S 761 mmHg 80%
    23:00 +25°C° 0 mm 2 m/S 761 mmHg 79%

    31 Januar, Freitag

    Zeit Temperatur Niederschläge Wind Luftdruck Luftfeuchtigkeit
    00:00 +25°C° 0 mm 2 m/S 761 mmHg 78%
    01:00 +25°C° 0 mm 2 m/S 760 mmHg 77%
    02:00 +25°C° 0 mm 2 m/S 760 mmHg 75%
    03:00 +25°C° 0 mm 2 m/S 760 mmHg 73%
    04:00 +25°C° 0 mm 2 m/S 760 mmHg 72%
    05:00 +26°C° 0 mm 2 m/S 761 mmHg 70%
    06:00 +26°C° 0 mm 2 m/S 761 mmHg 67%
    07:00 +27°C° 0 mm 3 m/S 762 mmHg 65%
    08:00 +28°C° 0 mm 3 m/S 762 mmHg 59%
    09:00 +30°C° 0 mm 3 m/S 762 mmHg 53%
    10:00 +31°C° 0 mm 3 m/S 762 mmHg 47%
    11:00 +33°C° 0 mm 4 m/S 761 mmHg 46%
    12:00 +33°C° 0 mm 4 m/S 761 mmHg 44%
    13:00 +34°C° 0 mm 4 m/S 761 mmHg 42%
    14:00 +33°C° 0 mm 4 m/S 760 mmHg 46%
    15:00 +33°C° 0 mm 4 m/S 760 mmHg 50%
    16:00 +32°C° 0 mm 4 m/S 760 mmHg 54%
    17:00 +30°C° 0 mm 4 m/S 760 mmHg 61%
    18:00 +28°C° 0 mm 3 m/S 761 mmHg 68%
    19:00 +27°C° 0 mm 3 m/S 761 mmHg 75%
    20:00 +26°C° 0 mm 3 m/S 762 mmHg 78%
    21:00 +26°C° 0 mm 3 m/S 762 mmHg 80%
    22:00 +25°C° 0 mm 3 m/S 762 mmHg 82%
    23:00 +25°C° 0 mm 2 m/S 762 mmHg 82%

    1 Februar, Samstag

    Zeit Temperatur Niederschläge Wind Luftdruck Luftfeuchtigkeit
    00:00 +25°C° 0 mm 2 m/S 762 mmHg 83%
    01:00 +25°C° 0 mm 2 m/S 761 mmHg 83%
    02:00 +25°C° 0.1 mm 2 m/S 761 mmHg 84%
    03:00 +25°C° 0.1 mm 2 m/S 761 mmHg 85%
    04:00 +25°C° 0.1 mm 2 m/S 761 mmHg 85%
    05:00 +25°C° 0.1 mm 2 m/S 761 mmHg 82%
    06:00 +26°C° 0.1 mm 2 m/S 762 mmHg 78%
    07:00 +27°C° 0.1 mm 2 m/S 762 mmHg 74%
    08:00 +28°C° 0 mm 2 m/S 762 mmHg 67%
    09:00 +30°C° 0 mm 3 m/S 762 mmHg 60%
    10:00 +31°C° 0 mm 3 m/S 762 mmHg 53%
    11:00 +33°C° 0 mm 4 m/S 761 mmHg 50%
    12:00 +33°C° 0 mm 4 m/S 761 mmHg 48%
    13:00 +34°C° 0 mm 4 m/S 760 mmHg 45%
    14:00 +33°C° 0 mm 4 m/S 760 mmHg 45%
    15:00 +33°C° 0 mm 4 m/S 759 mmHg 46%
    16:00 +32°C° 0 mm 4 m/S 759 mmHg 46%
    17:00 +30°C° 0 mm 3 m/S 759 mmHg 56%
    18:00 +28°C° 0 mm 3 m/S 759 mmHg 65%
    19:00 +27°C° 0 mm 2 m/S 760 mmHg 75%
    20:00 +26°C° 0 mm 2 m/S 760 mmHg 78%
    21:00 +26°C° 0 mm 2 m/S 760 mmHg 80%
    22:00 +26°C° 0 mm 2 m/S 761 mmHg 83%
    23:00 +26°C° 0.1 mm 1 m/S 761 mmHg 84%
    Mehr zeigen